Location: Kellogg
(38.0159°N, 90.0546°W)
Time: 18:51:39
(UTC+00:00)

Tiros 1 despin weight - Pass Details

Date: 22 September 2024
Orbit: 572 x 614 km, 48.2° (Epoch: 08 October)

Event Time Altitude Azimuth Distance (km) Brightness Sun altitude
Exits shadow 09:36:47 21° 346° (NNW) 1,387 ? -26.1°
Maximum altitude 09:37:45 23° 5° (N) 1,331 ? -25.9°
Drops below altitude 10° 09:41:23 10° 58° (ENE) 1,984 ? -25.3°
Sets 09:44:07 0° 73° (ENE) 2,890 ? -24.8°
